Regional Weather Roundup
Issued by NWS

Home | Current Version | Previous Version | Text Only | Print | Product List | Glossary On
Versions: 1 2 3 4 5 6 7 8 9 10 11 12 13 14 15 16 17 18 19 20 21 22 23 24 25 26 27 28 29 30 31 32 33 34 35 36 37 38 39 40 41 42 43 44 45 46 47 48 49 50
000
ASUS43 KDMX 050807
RWRIA

WEATHER ROUNDUP FOR IOWA
NATIONAL WEATHER SERVICE DES MOINES IA
300 AM CDT TUE MAY 05 2015

NOTE: "FAIR" INDICATES FEW OR NO CLOUDS BELOW 12,000 FEET WITH NO
SIGNIFICANT WEATHER AND/OR OBSTRUCTIONS TO VISIBILITY.

* - THESE STATIONS ARE NOT NWS STATIONS...THUS NOT UNDER NWS
QUALITY CONTROL.  THEY ALSO DO NOT REPORT WEATHER SUCH
AS PRECIPITATION OR FOG.

IAZ001>003-012>014-020>022-031>034-043>046-050900-
   NORTHWEST IOWA

CITY           SKY/WX    TMP DP  RH WIND       PRES   REMARKS
CARROLL *      LGT RAIN  55  55 100 E7        30.08F
CHEROKEE *     CLOUDY    57  41  54 NE6       30.10F
DENISON *      LGT RAIN  55  55 100 NE6       30.06F
LE MARS *      CLOUDY    54  43  66 N8        30.11S
ORANGE CITY *  CLOUDY    54  37  54 E6        30.11S
SHELDON *      PTCLDY    50  37  62 NE8       30.11S
SIOUX CITY     CLOUDY    58  50  75 NE7       30.09F
SPENCER        MOCLDY    52  41  66 NE7       30.12F
STORM LAKE *   CLOUDY    57  45  62 NE12      30.10F
$$

IAZ055>058-069>071-079>083-090>094-050900-
   SOUTHWEST IOWA

CITY           SKY/WX    TMP DP  RH WIND       PRES   REMARKS
ATLANTIC *     CLOUDY    61  61 100 SW7       30.06F
AUDUBON *      MOCLDY    57  54  88 NE3       30.08F
CLARINDA *     CLEAR     61  61 100 CALM      30.05F
COUNCIL BLFS * CLOUDY    61  61 100 W5        30.05F
CRESTON *      MOCLDY    61  61 100 NW7       30.06F
HARLAN  *      CLOUDY    57  57 100 N6        30.10S
LAMONI         CLOUDY    62  59  90 SE3       30.06R
RED OAK *      MOCLDY    61  61 100 CALM      30.04F
SHENANDOAH *   CLOUDY    61  61 100 W8        30.03F
$$

IAZ047>049-059>061-072>074-084-050900-
   CENTRAL IOWA

CITY           SKY/WX    TMP DP  RH WIND       PRES   REMARKS
AMES           LGT RAIN  60  59  96 NE8       30.07F FOG
ANKENY *       CLOUDY    63  63 100 N7        30.04F
CHARITON *     CLOUDY    59  59 100 SE5       30.07R
DES MOINES     CLOUDY    63  60  90 NE3       30.05S FOG
GRINNELL*      CLOUDY    61  57  88 CALM      30.07S
KNOXVILLE *      N/A     59  59 100 S8        30.05S
MARSHALLTOWN   LGT RAIN  61  60  97 NE7       30.06F FOG
PELLA *        RAIN      59  59 100 SE3       30.05F
PERRY *        CLOUDY    59  57  94 N5        30.07F FOG
$$

IAZ004>006-015-016-023>025-035-036-050900-
   NORTH CENTRAL IOWA

CITY           SKY/WX    TMP DP  RH WIND       PRES   REMARKS
ALGONA *       CLOUDY    57  43  58 NE8       30.12S
CLARION *      CLOUDY    57  45  62 E9        30.10S
ESTHERVILLE    CLOUDY    52  35  52 NE8       30.12F
FORT DODGE *   CLOUDY    55  48  76 NE3       30.10F
MASON CITY     CLOUDY    57  43  59 NE9       30.12F
FOREST CITY *  CLOUDY    55  37  50 NE7       30.12F
IOWA FALLS *   CLOUDY    59  54  82 NE6       30.10F
$$

IAZ007>011-017>019-026>030-037>042-050>054-066-050900-
   NORTHEAST IOWA

CITY           SKY/WX    TMP DP  RH WIND       PRES   REMARKS
CEDAR RAPIDS   LGT RAIN  61  61 100 E12       30.04F
CHARLES CITY * CLOUDY    57  43  58 E10       30.12F
CLINTON *      CLOUDY    57  55  94 E7        30.16F
DECORAH *      CLOUDY    59  45  58 E9        30.13S
DUBUQUE        LGT RAIN  57  55  93 E8        30.14F FOG
MONTICELLO *   LGT RAIN  61  61 100 E9        30.11F
OELWEIN *      CLOUDY    61  61 100 E9        30.11F FOG
WATERLOO       CLOUDY    60  59  96 NE9       30.07F FOG
$$

IAZ064-065-067-068-078-050900-
   EAST CENTRAL IOWA

CITY           SKY/WX    TMP DP  RH WIND       PRES   REMARKS
DAVENPORT      RAIN      60  58  92 E14       30.11F FOG
IOWA CITY      LGT RAIN  62  61  96 E5        30.06F
MT. PLEASANT * HVY RAIN  63  63 100 SE10      30.11R
MUSCATINE *    LGT RAIN  64  63  94 S9        30.09S
QUAD CITIES    RAIN      61  59  93 E13       30.11F FOG
$$

IAZ062-063-075>077-085>089-095>099-050900-
   SOUTHEAST IOWA

CITY           SKY/WX    TMP DP  RH WIND       PRES   REMARKS
BURLINGTON     TSTM      63  62  97 N7        30.11S FOG
FAIRFIELD *    CLOUDY    63  61  94 SE8       30.09R FOG
FORT MADISON * LGT RAIN  63  61  94 SE6       30.12R
KEOKUK *       RAIN      63  63 100 N5        30.09S
OSKALOOSA *      N/A     61  59  94 SE6       30.08R
CENTERVILLE *  CLEAR     59  59 100 SE8       30.08S
OTTUMWA        CLOUDY    60  59  96 S6        30.08R
WASHINGTON *   CLOUDY    63  63 100 SE8       30.08R
$$

ABBREVIATIONS USED IN REMARKS
   TC - TEMPERATURES IN CELSIUS
  WCI - WIND CHILL INDEX
   HX - HEAT INDEX
  VSB - VISIBILITY
$$



USA.gov is the U.S. government's official web portal to all federal, state and local government web resources and services.